This is the latest recevied weather packets stored in our database for station/object KD5VOO. If no packets are shown the sender has not sent any weather packets the latest 10 day(s).
| Time | Temp. | Humidity | Pressure | Rain* | Wind** | Luminosity | Snow |
|---|---|---|---|---|---|---|---|
| 1777820292 | 21.67° C | 32% | 1020 hPa | 0 mm | - | 41 W/m² | - |
| 1777819990 | 21.67° C | 31% | 1020 hPa | 0 mm | - | 97 W/m² | - |
| 1777819686 | 21.67° C | 30% | 1020 hPa | 0 mm | - | 100 W/m² | - |
| 1777819386 | 21.67° C | 31% | 1019.7 hPa | 0 mm | - | 37 W/m² | - |
| 1777819082 | 21.11° C | 30% | 1020 hPa | 0 mm | - | 65 W/m² | - |
| 1777818778 | 21.11° C | 33% | 1020 hPa | 0 mm | - | 132 W/m² | - |
| 1777818474 | 21.11° C | 35% | 1019.7 hPa | 0 mm | - | 126 W/m² | - |
| 1777818172 | 21.11° C | 30% | 1019.7 hPa | 0 mm | - | 87 W/m² | - |
| 1777817868 | 21.11° C | 36% | 1019.7 hPa | 0 mm | - | 113 W/m² | - |
| 1777817566 | 21.11° C | 36% | 1019.7 hPa | 0 mm | - | 91 W/m² | - |
| 1777817263 | 21.11° C | 39% | 1019.7 hPa | 0 mm | - | 90 W/m² | - |
| 1777816960 | 20.56° C | 37% | 1019.3 hPa | 0 mm | - | 26 W/m² | - |
| 1777816656 | 20.56° C | 40% | 1019.3 hPa | 0 mm | - | 62 W/m² | - |
| 1777816353 | 20° C | 43% | 1019.7 hPa | 0 mm | - | 87 W/m² | - |
| 1777816051 | 20° C | 41% | 1019.7 hPa | 0 mm | - | 81 W/m² | - |
| 1777815748 | 19.44° C | 42% | 1019.3 hPa | 0 mm | - | 74 W/m² | - |
| 1777815446 | 18.33° C | 47% | 1019.7 hPa | 0 mm | - | 65 W/m² | - |
| 1777815143 | 17.78° C | 47% | 1019.7 hPa | 0 mm | - | 58 W/m² | - |
| 1777814839 | 17.22° C | 52% | 1019.7 hPa | 0 mm | - | 52 W/m² | - |
| 1777814535 | 16.11° C | 53% | 1019.3 hPa | 0 mm | - | 46 W/m² | - |
| 1777814233 | 15.56° C | 56% | 1019.3 hPa | 0 mm | - | 40 W/m² | - |
| 1777813929 | 15° C | 58% | 1019.3 hPa | 0 mm | - | 34 W/m² | - |
| 1777813627 | 14.44° C | 59% | 1019.3 hPa | 0 mm | - | 30 W/m² | - |
| 1777813324 | 13.89° C | 61% | 1019.3 hPa | 0 mm | - | 26 W/m² | - |
| 1777813021 | 13.33° C | 62% | 1019.3 hPa | 0 mm | - | 23 W/m² | - |
* Rain latest hour (hover to see other rain measurements)
** Current wind speed in m/s (hover to see current wind gust speed)